• Join FlightAware (Why Join?)
  • Login
  • US Flag 
05:59AM EDT


 

Airport Tracker/Info


-or-


 

Live Flight TrackerFlight Track Log ✈ SWA407 ✈ 14-Apr-2013 ✈ KMCO - KATL

Flight Track Log - Related Links

Times and Time Zones

All times are in EDT time to prevent confusion due to time zone crossing. See the SWA407 flight status page for this flight to view local times or setup timezone preferences in your user account.

Time Position Orientation Groundspeed Altitude Reporting Facility
EDT Latitude Longitude Course Direction KTS MPH feet Rate Location/Type
02:59PM 28.4167 -81.3167 230° Southwest 153 176 600  Level Orlando TRACON
03:00PM 28.3667 -81.3833 230° Southwest 210 242 4,100 2,760 Climbing Orlando TRACON
03:01PM 28.3667 -81.4333 270° West 236 272 7,300 2,040 Climbing Orlando TRACON
03:02PM 28.4333 -81.4833 327° Northwest 306 352 8,100 1,740 Climbing Orlando TRACON
03:04PM 28.5911 -81.5167 349° North 341 392 12,300 2,700 Climbing Jacksonville Center
03:05PM 28.6958 -81.5317 353° North 359 413 15,800 3,480 Climbing Jacksonville Center
03:06PM 28.7961 -81.5539 349° North 365 420 19,300 3,000 Climbing Jacksonville Center
03:07PM 28.8986 -81.5786 348° North 371 427 21,900 2,700 Climbing Jacksonville Center
03:08PM 29.0011 -81.6033 348° North 371 427 24,700 2,520 Climbing Jacksonville Center
03:09PM 29.1100 -81.6281 349° North 376 433 27,000 2,100 Climbing Jacksonville Center
03:10PM 29.2272 -81.6575 348° North 381 438 28,900 1,620 Climbing Jacksonville Center
03:11PM 29.3422 -81.6872 347° North 397 457 30,300 1,380 Climbing Jacksonville Center
03:12PM 29.4594 -81.7144 349° North 410 472 31,700 1,500 Climbing Jacksonville Center
03:13PM 29.5808 -81.7414 349° North 420 483 33,400 1,620 Climbing Jacksonville Center
03:14PM 29.6978 -81.7711 348° North 432 497 35,000 780 Climbing Jacksonville Center
03:15PM 29.8150 -81.7986 348° North 432 497 35,000  Level Jacksonville Center
03:16PM 29.9322 -81.8261 349° North 432 497 35,000  Level Jacksonville Center
03:17PM 30.0367 -81.8464 350° North 432 497 35,000  Level Jacksonville Center
03:18PM 30.1558 -81.8739 349° North 432 497 35,000  Level Jacksonville Center
03:19PM 30.2833 -81.8800 358° North 439 505 35,000  Level Jacksonville Center
03:20PM 30.4106 -81.8617 North 449 517 35,000  Level Jacksonville Center
03:21PM 30.5358 -81.8433 North 455 524 35,000  Level Jacksonville Center
03:22PM 30.6672 -81.8275 North 461 531 35,000  Level Jacksonville Center
03:23PM 30.7944 -81.8117 North 461 531 35,000  Level Jacksonville Center
03:24PM 30.9075 -81.8442 346° North 435 501 35,000  Level Jacksonville Center
03:25PM 31.0081 -81.9036 333° Northwest 412 474 35,000  Level Jacksonville Center
03:26PM 31.1131 -81.9681 332° Northwest 412 474 35,000  Level Jacksonville Center
03:27PM 31.2197 -82.0278 334° Northwest 418 481 35,000  Level Jacksonville Center
03:28PM 31.3225 -82.0925 332° Northwest 418 481 35,000  Level Jacksonville Center
03:29PM 31.4294 -82.1547 334° Northwest 418 481 35,000  Level Jacksonville Center
03:30PM 31.5342 -82.2175 333° Northwest 418 481 35,000  Level Jacksonville Center
03:32PM 31.7600 -82.3486 334° Northwest 421 484 35,000  Level Atlanta Center
03:33PM 31.8672 -82.4103 334° Northwest 427 491 35,000  Level Atlanta Center
03:34PM 31.9725 -82.4744 333° Northwest 427 491 35,000  Level Atlanta Center
03:35PM 32.0633 -82.5536 324° Northwest 417 480 35,000 -180 Level Atlanta Center
03:36PM 32.1500 -82.6456 318° Northwest 412 474 34,700 -780 Descending Atlanta Center
03:37PM 32.2428 -82.7497 316° Northwest 412 474 33,500 -1,080 Descending Atlanta Center
03:38PM 32.3294 -82.8417 318° Northwest 417 480 32,600 -960 Descending Atlanta Center
03:39PM 32.4181 -82.9367 318° Northwest 417 480 31,600 -960 Descending Atlanta Center
03:40PM 32.5086 -83.0339 318° Northwest 422 486 30,700 -960 Descending Atlanta Center
03:41PM 32.6011 -83.1339 318° Northwest 422 486 29,700 -960 Descending Atlanta Center
03:42PM 32.6894 -83.2317 317° Northwest 430 495 28,800 -1,620 Descending Atlanta Center
03:43PM 32.7842 -83.3347 318° Northwest 447 514 26,500 -2,460 Descending Atlanta Center
03:44PM 32.8744 -83.4353 317° Northwest 447 514 23,900 -2,940 Descending Atlanta Center
03:45PM 32.9644 -83.5311 318° Northwest 447 514 20,700 -2,640 Descending Atlanta Center
03:46PM 33.0506 -83.6275 317° Northwest 441 507 18,700 -1,560 Descending Atlanta Center
03:47PM 33.1300 -83.7139 318° Northwest 414 476 17,600 -1,500 Descending Atlanta Center
03:48PM 33.1833 -83.7667 320° Northwest 360 414 16,200 -1,860 Descending Atlanta TRACON
03:49PM 33.2500 -83.8667 309° West 345 397 14,200 -1,380 Descending Atlanta TRACON
03:50PM 33.3167 -83.9500 314° West 317 365 13,400 -900 Descending Atlanta TRACON
03:51PM 33.3500 -84.0167 301° West 300 345 12,500 -900 Descending Atlanta TRACON
03:51PM 33.3706 -84.0439 312° West 312 359 12,400 -420 Descending Atlanta Center
03:52PM 33.4164 -84.1158 307° West 286 329 12,000 -240 Descending Atlanta Center
03:53PM 33.4603 -84.1833 308° West 265 305 12,000  Level Atlanta Center
03:54PM 33.5000 -84.2333 314° West 252 290 12,000 -180 Level Atlanta TRACON
03:55PM 33.5333 -84.3000 301° West 246 283 11,700 -780 Descending Atlanta TRACON
03:56PM 33.5500 -84.3833 284° West 228 262 10,400 -1,200 Descending Atlanta TRACON
03:57PM 33.5500 -84.4500 270° West 233 268 9,400 -1,200 Descending Atlanta TRACON
03:58PM 33.5500 -84.5333 270° West 232 267 8,200 -1,200 Descending Atlanta TRACON
03:59PM 33.5500 -84.6000 270° West 226 260 7,000 -1,500 Descending Atlanta TRACON
04:00PM 33.5500 -84.6833 270° West 248 285 5,300 -1,500 Descending Atlanta TRACON
04:01PM 33.5500 -84.7667 270° West 255 293 4,100 -840 Descending Atlanta TRACON
04:02PM 33.6000 -84.7667 360° North 206 237 3,600 -540 Descending Atlanta TRACON
04:03PM 33.6167 -84.7167 68° East 167 192 3,000 -360 Descending Atlanta TRACON
04:04PM 33.6167 -84.6667 90° East 164 189 3,000  Level Atlanta TRACON
04:05PM 33.6167 -84.6167 90° East 162 186 3,000 -60 Level Atlanta TRACON
04:06PM 33.6167 -84.5667 90° East 163 188 2,900 -420 Descending Atlanta TRACON
04:07PM 33.6167 -84.5167 90° East 125 144 2,200 -720 Descending Atlanta TRACON
04:08PM 33.6167 -84.4833 90° East 128 147 1,600 -720 Descending Atlanta TRACON
04:10PM 33.6367 -84.4279 64° Northeast  Level Estimated
04:17PM 33.6367 -84.4279 64° Northeast  Level Estimated